Weather History for VTUK - October, 2012

Change the Weather History Date:

Sunday, October 21, 2012

  Actual Average Record
Temperature  
Mean Temperature 84 °F -  
Max Temperature 92 °F 88 °F - ()
Min Temperature 75 °F 68 °F - ()
Cooling Degree Days 18    
Growing Degree Days 34 (Base 50)    
Moisture  
Dew Point 71 °F    
Average Humidity 64    
Maximum Humidity 100    
Minimum Humidity 37    
Precipitation  
Precipitation 0.00 in 0.06 in - ()
Sea Level Pressure  
Sea Level Pressure 29.89 in    
Wind  
Wind Speed 5 mph ()    
Max Wind Speed 15 mph    
Max Gust Speed -    
Visibility 5.7 miles    
Events      
T = Trace of Precipitation, MM = Missing Value Source: Averaged Metar Reports

Daily Weather History Graph

Daily Weather History Graph

Search for Another Location

Airport or City:

Trip Planner

Search our weather history database for the weather conditions in past years. The results will help you decide how hot, cold, wet, or windy it might be!

Date:

Astronomy

Oct. 21, 2012 Rise Set
Actual Time 6:02 AM ICT 5:43 PM ICT
Civil Twilight 5:40 AM ICT 6:05 PM ICT
Nautical Twilight 5:15 AM ICT 6:31 PM ICT
Astronomical Twilight 4:50 AM ICT 6:56 PM ICT
Moon 11:39 AM ICT (10/21) 11:19 PM ICT (10/21)
Length of Visible Light 12h 24m
Length of Day
11h 41m
Waxing Crescent, 40% of the Moon is Illuminated
Oct 21
Waxing Crescent
Oct 22
First Quarter
Oct 30
Full
Nov 7
Last Quarter
Nov 14
New

Hourly Weather History & Observations

Time (ICT) Temp. Heat Index Dew Point Humidity Pressure Visibility Wind Dir Wind Speed Gust Speed Precip Events Conditions
1:00 AM 78 °F - 68 °F 65% 29.88 in 5 mi East 3.5 mph - -   Mist
6:00 AM 73.4 °F - 73.4 °F 100% 29.92 in 5.0 mi North 4.6 mph - N/A   Unknown
7:00 AM 76 °F - 71 °F 80% 29.92 in 4 mi NNE 2.3 mph - -   Mist
7:00 AM 78.8 °F - 73.4 °F 83% 29.92 in 4.3 mi North 3.5 mph - N/A   Partly Cloudy
8:00 AM 78.8 °F - 73.4 °F 83% 29.95 in 4.3 mi NE 5.8 mph - N/A   Scattered Clouds
9:00 AM 80.6 °F 85.4 °F 73.4 °F 79% 29.98 in 6.2 mi NNE 4.6 mph - N/A   Partly Cloudy
10:00 AM 86.0 °F 93.4 °F 73.4 °F 66% 29.98 in 6.2 mi NE 9.2 mph - N/A   Partly Cloudy
11:00 AM 87.8 °F 92.6 °F 69.8 °F 55% 29.95 in 6.2 mi ENE 9.2 mph - N/A   Partly Cloudy
12:00 PM 89.6 °F 94.7 °F 69.8 °F 52% 29.92 in 6.2 mi ENE 9.2 mph - N/A   Partly Cloudy
1:00 PM 90 °F - 67 °F 37% 29.86 in 6 mi NNE 15.0 mph - -   Scattered Clouds
1:00 PM 91.4 °F 98.4 °F 71.6 °F 52% 29.89 in 6.2 mi NE 10.4 mph - N/A   Scattered Clouds
2:00 PM 91.4 °F 98.4 °F 71.6 °F 52% 29.86 in 6.2 mi ENE 8.1 mph - N/A   Scattered Clouds
3:00 PM 93.2 °F 100.5 °F 71.6 °F 49% 29.83 in 6.2 mi ENE 8.1 mph - N/A   Scattered Clouds
4:00 PM 91.4 °F 98.4 °F 71.6 °F 52% 29.83 in 6.2 mi ENE 5.8 mph - N/A   Scattered Clouds
5:00 PM 89.6 °F 96.2 °F 71.6 °F 55% 29.83 in 6.2 mi ENE 5.8 mph - N/A   Scattered Clouds
6:00 PM 86.0 °F 91.8 °F 71.6 °F 62% 29.86 in 6.2 mi ENE 3.5 mph - N/A   Scattered Clouds
7:00 PM 84 °F - 69 °F 53% 29.83 in 6 mi ENE 2.3 mph - -   Scattered Clouds
7:00 PM 84.2 °F 92.3 °F 75.2 °F 74% 29.86 in 6.2 mi ENE 3.5 mph - N/A   Scattered Clouds
8:00 PM 82.4 °F 87.2 °F 71.6 °F 70% 29.86 in 6.2 mi East 2.3 mph - N/A   Scattered Clouds